DELTA 1 DEB, 13531

Orbit data source: Space-Track

DELTA 1 DEB, 13531 is space debris in SSO originally from a launch on Thu, 29 Jul 1976 UTC launched from the Air Force Western Test Range (AFWTR). Debris objects in space refer to the collection of defunct objects orbiting the Earth. Examples of debris include non-operational satellites, rocket bodies, and fragments generated from explosions, collisions, or faulty payload assembly.

Loading next visibility...
Identifier
13531, 1976-077ED
Orbit
SSO
Country
Flag of USUS
Related business
Manufacturer
Unknown
Mission
Spacecraft
Bus & Motor
Unknown
Mass
Unknown
Launch date (UTC)
1976-07-29 (50 years ago)
Launch vehicle
Unknown
Launch site
Air Force Western Test Range (AFWTR)
Object type
Payload
Rocket body
Debris
Shape & HBR
Unknown shape, 0.1 m
Radar Cross Section
Small (<0.1 m²)

Expand to show TLE details & history
Last TLE update: 1 day ago

TLE from 1 day ago
0 DELTA 1 DEB
1 13531U 76077ED  26125.83546986 -.00000044  00000-0  18782-4 0  9994
2 13531 102.7522 104.0181 0140764 240.2051 188.4122 12.17154506950906
Epoch: 2026-05-05T20:03Z
TLE epoch observation values (Epoch: 2026-05-05T20:03:04.595Z)
Latitude
65.14281°
Longitude
-89.54622°
Altitude
1,727.199 km
Speed
6.971 km/s
True Right ascension
04h 59m 42s
True Declination
65° 01' 38"
Sunlit
Object was in daylight at epoch
Visualization orbit readout
Latitude
Unknown
Longitude
Unknown
Altitude
Unknown
Speed
Unknown
Apparent Right ascension
Unknown
Apparent Declination
Unknown
Sunlit
N/A
Visualization observer readout
Local Sidereal Time
03:57:04
Azimuth
Unknown
Elevation
Unknown
Doppler factor
Unknown
Orbital elements
Apogee altitude
1,714.949 km
Perigee altitude
1,490.269 km
Semi-major axis
7,980.746 km
Eccentricity
0.01408
Inclination
102.7522°
RAAN
104.0181°
Arg. of periapsis
240.2051°
True anomaly
188.18026°
Mean anomaly
188.4122°
Eccentric anomaly
188.29583°
Mean motion
3.04423 °/min
Orbital period
118.26 mins
BSTAR
0.000018782
Loading maneuver chart data...
Computing Atmospheric mass density...
Loading historical data...
Loading historical data...
Loading historical data...
Loading historical data...
Loading historical data...
Loading historical data...
Loading historical data...

Documentation

Showing up to 5 results
|